Wind_Speed
15 15 15 14 13 13 13 13 13 12 11 11 11 11 11 10 11 11 11 11 10 10 10 11 11 12 12 13 13 14 13 13 13 14 14 14 15 16 16 16 17 17 18
16 16 15 14 13 13 13 13 12 12 12 12 12 11 11 11 11 11 11 11 11 12 12 12 12 12 13 13 14 14 14 14 14 14 14 15 15 16 16 17 17 17 17
16 16 15 15 13 12 12 12 12 12 13 13 12 12 11 11 11 11 11 11 12 12 12 13 13 12 12 12 13 14 15 15 15 15 15 16 16 17 17 17 17 18 19
16 15 15 14 12 11 11 12 12 13 13 14 13 13 12 11 11 11 12 12 12 13 13 14 14 13 13 13 13 13 14 15 16 16 16 16 17 17 17 17 18 19 20
15 13 13 12 12 13 13 13 14 13 14 15 14 13 12 12 12 12 12 12 13 13 14 14 14 14 14 15 15 14 15 16 16 16 16 17 17 17 18 18 19 20 20
15 13 13 12 12 13 14 15 15 14 14 15 14 13 13 13 13 13 13 13 14 14 14 15 15 14 14 15 15 16 17 17 17 18 18 18 18 18 18 19 19 19 20
15 13 13 11 12 13 14 15 14 14 14 15 14 13 14 14 13 13 13 14 14 14 14 15 15 14 15 16 16 16 17 18 18 18 19 19 20 20 20 20 20 20 21
14 14 14 14 14 14 14 15 15 15 15 15 14 13 14 14 14 13 13 14 14 14 14 14 14 14 15 15 16 17 17 18 18 19 19 20 20 21 21 21 22 22 22
15 14 15 15 15 14 15 16 15 15 14 14 13 13 14 14 14 13 14 14 14 14 14 14 15 15 15 16 16 17 18 18 18 18 19 20 20 21 22 22 22 23 23
16 16 16 16 15 15 16 16 16 16 15 14 14 14 14 13 13 13 13 13 13 13 14 14 15 15 16 17 16 17 17 17 18 19 19 19 20 20 21 22 22 23 23
19 17 16 17 16 16 17 17 16 16 16 15 14 14 14 14 13 13 13 13 12 12 12 13 13 14 14 15 15 16 16 16 17 17 17 17 18 20 20 21 22 22 23
19 19 18 17 17 17 17 18 17 16 16 16 15 15 15 14 13 14 13 13 13 12 12 12 11 12 13 14 13 14 14 14 15 15 15 16 16 17 18 19 20 21 22
20 19 18 18 18 18 17 16 16 15 15 15 16 15 15 14 13 13 13 12 12 12 11 11 12 12 13 13 13 13 14 14 14 14 15 15 16 17 18 19 19 19 20
19 18 18 18 18 17 17 17 16 15 15 15 15 15 15 14 13 12 12 12 12 12 12 11 12 13 13 14 14 14 14 14 14 14 14 15 16 17 18 18 18 18 19
20 19 19 18 18 17 17 16 16 16 16 15 15 15 14 14 13 13 13 12 12 12 12 12 13 13 14 14 14 15 15 14 14 14 15 16 16 16 17 17 18 18 18
20 19 19 18 18 16 16 16 17 17 17 16 15 14 14 13 13 12 12 13 13 12 12 13 13 13 14 14 15 15 15 14 14 15 15 16 16 15 16 17 17 17 18
20 20 19 18 19 19 18 17 16 17 17 16 15 14 14 14 13 13 12 13 13 13 12 13 13 14 14 14 14 15 14 14 14 15 15 15 15 15 15 16 17 17 17
20 20 19 18 19 19 19 18 17 18 17 16 14 14 14 14 14 14 14 14 13 13 13 12 13 14 14 14 14 14 14 13 14 14 14 15 14 15 15 15 16 17 17
21 21 20 19 19 19 18 18 18 17 17 17 15 14 13 13 13 13 12 12 12 12 12 12 12 12 13 13 14 13 12 12 13 14 14 14 15 15 15 15 15 15 16
21 21 20 20 19 18 18 18 18 17 17 17 16 15 15 14 13 12 12 12 11 11 11 12 12 12 12 13 13 12 12 12 13 13 13 14 14 14 14 14 14 14 15
21 20 20 19 18 18 18 17 17 16 17 16 16 15 15 15 15 14 13 13 13 12 12 12 13 13 12 12 12 11 12 13 12 13 13 14 13 14 14 13 13 14 15
21 21 20 19 19 18 18 18 17 17 17 17 16 16 16 16 15 14 14 14 13 12 12 12 12 12 12 11 11 11 11 11 12 12 13 13 13 13 12 12 13 14 15
19 19 18 19 19 19 19 18 18 18 17 17 17 17 16 16 15 15 15 14 14 12 12 12 12 12 11 11 11 12 12 12 12 13 13 13 13 12 12 13 14 14 14
18 18 18 18 18 18 18 18 18 18 18 17 17 16 16 16 15 15 15 15 15 14 13 12 12 12 12 12 12 12 12 13 13 13 13 12 13 13 13 13 14 14 15
17 17 16 16 17 17 17 17 17 17 17 16 16 16 15 15 15 15 14 14 15 14 14 13 13 12 12 12 13 13 13 13 13 13 12 12 13 13 13 14 14 15 15
17 16 17 17 17 17 17 17 17 17 16 16 16 16 16 16 16 15 14 13 14 14 14 14 13 13 13 13 13 13 13 14 14 14 14 14 14 15 15 16 16 16 16
Wind_Direction
276 282 284 286 289 293 297 299 300 301 298 299 295 290 284 281 283 284 284 286 288 288 287 287 284 280 279 275 269 268 267 264 263 260 258 258 258 256 257 257 259 257 257
273 276 279 280 281 287 291 295 299 300 301 298 297 293 285 284 286 284 283 282 284 284 283 281 284 280 277 275 272 269 269 269 265 262 262 263 261 258 258 258 260 259 260
269 275 282 282 282 286 289 290 292 295 299 297 295 293 290 287 285 283 284 285 285 284 281 280 279 279 276 275 273 271 270 269 266 263 263 263 262 262 260 259 259 260 262
264 270 279 283 286 288 287 290 289 292 296 296 293 291 288 288 285 282 283 282 283 282 281 281 278 277 276 275 275 273 270 267 265 264 264 264 262 262 260 260 260 261 263
263 267 277 282 286 288 290 290 288 290 292 292 292 291 288 288 286 283 282 281 282 282 282 282 279 275 275 276 276 273 272 269 267 266 265 265 263 262 260 259 260 261 263
264 268 277 281 283 287 289 289 288 287 289 288 289 290 288 287 285 283 283 284 283 282 282 281 278 274 275 276 276 275 275 272 269 268 266 265 264 264 262 260 260 261 263
265 269 273 276 280 285 288 288 288 287 288 287 289 290 290 288 284 285 287 289 288 284 282 279 277 277 275 275 277 277 276 275 272 270 268 265 264 262 263 262 263 262 263
261 269 270 273 277 281 284 285 288 288 288 287 288 290 292 290 285 282 286 290 290 287 286 281 280 279 278 277 278 279 278 276 273 271 269 267 265 264 265 265 264 263 263
259 264 267 267 273 279 284 283 283 285 287 285 284 287 290 290 289 283 284 287 288 287 288 283 281 280 280 280 281 282 280 278 274 271 268 267 267 267 265 266 266 266 265
256 259 260 263 270 274 278 278 281 282 285 285 285 286 293 291 289 286 285 286 290 290 289 286 285 284 285 283 283 283 282 278 275 274 270 268 269 270 269 269 268 267 268
257 258 258 263 267 269 272 274 274 278 282 285 287 290 293 290 290 290 292 289 288 292 295 291 291 291 291 290 288 286 282 281 279 278 276 273 274 273 272 271 271 271 269
259 264 263 263 265 267 270 272 272 278 281 282 284 285 289 289 290 291 288 287 290 293 295 297 298 299 299 298 296 293 290 287 284 279 276 276 278 277 274 273 273 271 270
259 263 261 258 263 267 269 272 275 277 279 281 285 286 288 287 287 287 286 287 289 292 292 293 297 298 299 299 299 297 294 289 286 284 283 282 281 279 277 275 275 274 274
257 258 259 261 261 264 267 270 275 274 276 279 283 285 286 286 286 284 284 285 286 287 288 289 294 297 298 300 298 298 297 291 287 287 288 287 287 284 281 277 275 275 275
258 254 255 261 259 260 264 263 270 272 274 277 280 282 283 283 283 282 282 284 287 287 288 287 291 296 299 302 301 299 298 295 291 290 291 290 289 287 285 281 277 274 274
259 255 257 260 261 262 260 261 265 267 270 274 277 276 277 279 281 283 285 285 288 288 287 287 289 293 297 301 301 299 301 298 294 294 295 293 292 289 288 284 278 277 276
258 260 258 259 261 263 266 264 260 261 265 269 274 273 270 273 276 280 285 285 285 287 286 287 290 294 296 299 299 300 300 300 299 298 297 295 292 290 288 286 282 281 280
257 257 260 261 262 265 270 270 267 264 263 266 270 270 269 269 273 277 281 282 282 283 286 289 292 296 297 298 298 298 301 303 304 303 303 301 297 293 289 284 284 284 284
255 256 260 264 264 265 267 270 270 267 262 263 264 266 268 269 269 273 278 282 282 282 284 288 292 296 296 296 296 299 299 300 304 306 306 304 301 297 293 289 286 286 285
254 256 259 262 263 266 266 267 269 266 262 261 262 265 268 267 268 271 276 281 281 283 285 289 292 294 294 295 298 301 300 301 303 306 305 304 303 301 297 294 288 288 289
253 254 258 260 262 264 264 264 266 266 261 258 258 261 265 266 266 271 277 280 278 279 283 287 290 291 292 296 298 296 298 302 303 304 306 308 307 306 302 298 292 291 291
250 253 255 256 259 260 260 261 264 263 261 258 255 259 261 262 263 268 276 281 278 280 284 288 289 290 291 295 296 295 299 300 302 304 307 310 310 309 306 303 299 297 297
251 253 255 255 255 256 257 257 260 260 260 257 255 256 259 259 260 264 270 275 277 279 286 287 288 289 291 293 296 296 295 298 301 304 308 310 311 311 309 308 307 303 302
257 256 256 253 254 255 257 257 258 259 257 256 254 252 254 256 258 261 266 271 272 273 279 281 286 290 291 293 298 300 299 300 304 306 309 310 312 312 310 310 310 309 306
254 253 253 253 254 254 255 253 253 254 253 252 251 252 252 253 256 260 265 270 270 271 273 278 284 288 289 292 294 297 298 300 304 309 312 311 311 312 312 312 311 312 313
256 252 252 254 253 253 253 253 251 250 252 252 250 252 251 253 256 259 262 265 263 265 269 273 276 281 284 287 292 295 296 298 301 305 306 307 307 307 309 310 309 311 313
Height
5861 5860 5860 5860 5859 5858 5857 5856 5854 5853 5852 5851 5850 5848 5847 5847 5846 5845 5845 5844 5843 5842 5842 5841 5841 5840 5839 5839 5838 5838 5838 5838 5838 5838 5838 5838 5838 5839 5839 5840 5840 5841 5841
5857 5857 5857 5856 5855 5855 5854 5853 5852 5850 5849 5848 5847 5845 5845 5844 5843 5842 5841 5840 5840 5839 5838 5838 5837 5836 5835 5835 5834 5834 5834 5834 5834 5834 5834 5834 5835 5834 5835 5835 5835 5836 5836
5853 5853 5853 5852 5852 5851 5851 5850 5849 5848 5846 5845 5844 5843 5841 5840 5839 5839 5838 5837 5836 5835 5834 5834 5833 5832 5831 5831 5830 5829 5829 5829 5829 5829 5830 5830 5830 5830 5830 5830 5830 5831 5831
5849 5849 5849 5849 5848 5848 5848 5847 5846 5845 5844 5842 5841 5839 5838 5837 5836 5835 5834 5833 5832 5831 5830 5829 5828 5827 5827 5826 5826 5825 5825 5824 5824 5824 5824 5825 5825 5825 5825 5825 5825 5826 5826
5844 5845 5846 5846 5846 5845 5845 5844 5843 5842 5841 5839 5838 5836 5835 5833 5832 5831 5830 5829 5828 5827 5826 5825 5824 5823 5822 5822 5821 5821 5820 5820 5819 5819 5819 5819 5819 5819 5820 5820 5820 5820 5820
5840 5841 5842 5842 5842 5842 5841 5840 5839 5838 5837 5836 5834 5833 5831 5830 5828 5827 5826 5825 5824 5822 5821 5820 5819 5818 5817 5817 5816 5815 5815 5814 5814 5814 5813 5813 5813 5814 5814 5814 5815 5815 5815
5836 5837 5838 5838 5838 5838 5837 5836 5835 5834 5833 5832 5830 5829 5827 5826 5824 5823 5822 5820 5819 5817 5816 5815 5814 5813 5812 5812 5811 5810 5809 5809 5808 5808 5808 5807 5808 5808 5808 5808 5809 5809 5809
5832 5832 5833 5834 5833 5833 5833 5832 5831 5830 5829 5828 5826 5825 5823 5822 5820 5819 5817 5816 5814 5812 5811 5810 5809 5808 5807 5806 5805 5804 5804 5803 5802 5802 5801 5801 5801 5802 5802 5802 5802 5803 5803
5827 5827 5828 5829 5828 5829 5829 5828 5827 5826 5824 5823 5822 5820 5819 5818 5816 5814 5813 5811 5809 5808 5806 5805 5804 5803 5802 5801 5800 5799 5798 5797 5796 5795 5795 5795 5795 5795 5795 5795 5796 5796 5796
5821 5822 5823 5823 5823 5824 5824 5823 5822 5821 5820 5818 5817 5815 5814 5813 5811 5810 5808 5807 5805 5803 5802 5801 5799 5798 5797 5795 5794 5793 5791 5790 5790 5789 5789 5789 5788 5788 5788 5788 5789 5789 5790
5817 5817 5817 5818 5818 5819 5818 5818 5817 5816 5815 5813 5812 5811 5809 5808 5806 5805 5803 5802 5801 5799 5798 5796 5795 5793 5792 5790 5788 5787 5786 5785 5784 5783 5783 5782 5782 5782 5782 5782 5782 5782 5782
5811 5811 5811 5812 5813 5812 5812 5812 5812 5811 5810 5809 5808 5806 5805 5804 5802 5800 5799 5798 5797 5795 5794 5792 5791 5789 5788 5786 5784 5782 5781 5780 5779 5778 5777 5777 5776 5776 5776 5776 5775 5775 5775
5804 5805 5805 5806 5807 5807 5807 5807 5806 5806 5805 5804 5803 5802 5800 5799 5797 5796 5794 5794 5793 5791 5790 5789 5787 5786 5784 5782 5780 5778 5777 5775 5774 5773 5772 5772 5771 5770 5770 5770 5769 5769 5769
5798 5799 5800 5800 5801 5801 5801 5801 5801 5800 5800 5799 5798 5797 5796 5795 5793 5792 5791 5790 5789 5787 5786 5785 5783 5782 5780 5778 5776 5774 5772 5771 5770 5768 5767 5766 5765 5764 5764 5763 5763 5763 5763
5791 5792 5793 5794 5794 5794 5795 5795 5795 5795 5794 5794 5793 5792 5792 5790 5789 5788 5787 5786 5785 5783 5782 5781 5779 5778 5776 5774 5772 5770 5768 5767 5765 5764 5763 5761 5760 5759 5758 5758 5757 5757 5757
5785 5786 5787 5787 5787 5787 5788 5789 5789 5789 5789 5789 5788 5787 5787 5786 5785 5784 5783 5781 5780 5779 5778 5777 5776 5774 5772 5770 5768 5766 5764 5763 5761 5760 5758 5757 5755 5754 5753 5752 5752 5752 5752
5780 5780 5780 5781 5782 5782 5782 5783 5783 5783 5783 5783 5783 5782 5782 5781 5780 5780 5779 5777 5776 5775 5774 5773 5772 5770 5768 5766 5764 5762 5760 5759 5757 5755 5754 5752 5750 5749 5748 5747 5747 5746 5746
5774 5774 5774 5775 5776 5776 5777 5777 5776 5777 5777 5777 5777 5777 5776 5776 5776 5775 5774 5773 5772 5772 5770 5769 5768 5766 5764 5763 5761 5759 5757 5755 5753 5752 5750 5747 5746 5744 5743 5743 5742 5741 5740
5767 5768 5768 5769 5770 5770 5770 5770 5770 5770 5771 5771 5771 5771 5771 5771 5771 5771 5770 5769 5768 5768 5766 5765 5764 5763 5761 5759 5757 5755 5753 5752 5750 5748 5746 5744 5742 5740 5739 5738 5737 5736 5735
5760 5762 5762 5763 5763 5763 5764 5764 5765 5765 5765 5765 5766 5766 5766 5766 5766 5766 5766 5765 5764 5763 5763 5762 5760 5759 5757 5755 5753 5751 5750 5748 5746 5744 5742 5740 5738 5736 5734 5733 5732 5732 5731
5754 5755 5756 5757 5757 5757 5758 5758 5759 5759 5760 5760 5761 5761 5761 5761 5762 5762 5761 5761 5760 5759 5759 5758 5757 5755 5754 5752 5750 5748 5747 5745 5743 5741 5739 5737 5735 5732 5731 5729 5728 5727 5726
5748 5749 5750 5750 5751 5751 5752 5753 5754 5754 5754 5755 5755 5756 5756 5756 5757 5757 5757 5757 5756 5755 5754 5754 5753 5751 5750 5748 5746 5745 5743 5742 5740 5738 5736 5734 5732 5730 5728 5726 5725 5723 5722
5741 5742 5742 5744 5744 5745 5746 5747 5748 5748 5749 5749 5750 5750 5751 5751 5752 5752 5752 5752 5752 5751 5750 5750 5749 5748 5746 5745 5743 5741 5740 5738 5737 5735 5733 5731 5729 5727 5725 5723 5721 5720 5718
5734 5735 5736 5737 5738 5739 5740 5740 5741 5742 5743 5744 5744 5745 5746 5746 5746 5747 5747 5747 5747 5747 5746 5746 5745 5744 5743 5741 5740 5738 5737 5735 5733 5732 5730 5728 5726 5724 5722 5720 5718 5716 5714
5729 5730 5730 5731 5732 5733 5734 5734 5735 5736 5737 5738 5739 5739 5740 5741 5741 5742 5742 5743 5743 5742 5742 5741 5741 5740 5739 5738 5736 5735 5733 5732 5730 5729 5727 5725 5723 5721 5719 5717 5715 5712 5710
5723 5724 5724 5725 5725 5726 5727 5728 5729 5730 5731 5732 5733 5734 5735 5736 5736 5737 5737 5737 5738 5737 5737 5737 5736 5735 5734 5733 5732 5731 5729 5728 5727 5725 5724 5722 5720 5718 5715 5713 5711 5708 5706